Date String (YYYY-MM-DD hh:mm:ss) UTC,Instrument flags,absolute air pressure of the measurement (hPa),sample flow rate (lpm),inlet stack bypass flow (lpm),air temperature of the measurement (°C),ambient temperature measured by the external sensor (°C),aerosol sample conditioner tube jacket temperature (°C),OPC LED temperature (°C),internal box temperature (°C),relative humidity of the measurement (%),span deviation,mass concentration of particles derived from Lorenz-Mie calculation of OPC scattering (μg/m³),mass concentration of particles derived from Lorenz-Mie calculation of OPC scattering (μg/m³),mass concentration of particles derived from Lorenz-Mie calculation of OPC scattering (μg/m³)
DateTimeUTC,F1_M11,P_M11,Q1_M11,Q2_M11,T1_M11,T2_M11,T3_M11,T4_M11,T5_M11,U1_M11,ZSPAN_M11,X2_M11,X0_M11,X1_M11
2023-11-27 02:00:00,SystemResetWarning,0830.9,5.00,000.00,021.0,020.0,000.0,029.6,022.1,12.1,0000.0,0004.76,0007.41,0004.46
2023-11-27 02:01:00,SystemResetWarning,0830.9,5.00,000.00,021.0,019.9,000.0,029.5,022.1,12.1,0000.0,0004.74,0007.36,0004.45
2023-11-27 02:02:00,SystemResetWarning,0830.9,5.00,000.00,021.0,019.9,000.0,029.5,022.1,11.9,0000.0,0004.70,0008.16,0004.43
2023-11-27 02:03:00,SystemResetWarning,0830.9,5.00,000.00,020.9,019.9,000.0,029.5,022.0,12.0,0000.0,0004.68,0008.26,0004.42
2023-11-27 02:04:00,SystemResetWarning,0830.9,5.01,000.00,020.9,019.9,000.0,029.5,021.9,12.0,0000.0,0004.61,0008.22,0004.39
2023-11-27 02:05:00,SystemResetWarning,0830.9,5.00,000.00,020.9,019.9,000.0,029.5,021.9,12.0,0000.0,0004.57,0008.20,0004.37
2023-11-27 02:06:00,SystemResetWarning,0831.0,5.00,000.00,020.8,019.8,000.0,029.4,021.9,12.0,0000.0,0004.55,0008.19,0004.36
2023-11-27 02:07:00,SystemResetWarning,0831.1,4.99,000.00,020.8,019.8,000.0,029.4,021.8,12.0,0000.0,0004.55,0008.22,0004.35
2023-11-27 02:08:00,SystemResetWarning,0831.0,4.99,000.00,020.8,019.8,000.0,029.4,021.7,12.0,0000.0,0004.57,0008.48,0004.36
2023-11-27 02:09:00,SystemResetWarning,0831.1,5.01,000.00,020.8,019.7,000.0,029.4,021.7,12.0,0000.0,0004.59,0008.98,0004.36
2023-11-27 02:10:00,SystemResetWarning,0831.0,5.01,000.00,020.7,019.7,000.0,029.3,021.7,12.0,0000.0,0004.57,0008.91,0004.35
2023-11-27 02:11:00,SystemResetWarning,0831.0,5.00,000.00,020.7,019.7,000.0,029.3,021.8,12.1,0000.0,0004.59,0008.92,0004.36
2023-11-27 02:12:00,SystemResetWarning,0831.1,4.99,000.00,020.7,019.7,000.0,029.3,021.8,12.2,0000.0,0004.59,0008.92,0004.36
2023-11-27 02:13:00,SystemResetWarning,0831.1,4.99,000.00,020.7,019.7,000.0,029.3,021.7,12.2,0000.0,0004.59,0008.27,0004.36
2023-11-27 02:14:00,SystemResetWarning,0831.1,5.00,000.00,020.7,019.6,000.0,029.2,021.7,12.1,0000.0,0004.57,0007.96,0004.35
2023-11-27 02:15:00,SystemResetWarning,0831.1,5.01,000.00,020.6,019.6,000.0,029.2,021.7,12.1,0000.0,0004.59,0008.54,0004.36
2023-11-27 02:16:00,SystemResetWarning,0831.2,5.01,000.00,020.6,019.6,000.0,029.2,021.7,12.1,0000.0,0004.62,0008.62,0004.38
2023-11-27 02:17:00,SystemResetWarning,0831.1,4.98,000.00,020.6,019.5,000.0,029.2,021.6,12.2,0000.0,0004.60,0008.59,0004.37
2023-11-27 02:18:00,SystemResetWarning,0831.2,5.00,000.00,020.5,019.5,000.0,029.2,021.5,12.1,0000.0,0004.59,0008.53,0004.36
2023-11-27 02:19:00,SystemResetWarning,0831.1,5.00,000.00,020.5,019.5,000.0,029.1,021.5,12.1,0000.0,0004.56,0008.25,0004.35
2023-11-27 02:20:00,SystemResetWarning,0831.1,5.01,000.00,020.5,019.5,000.0,029.1,021.5,12.1,0000.0,0004.57,0007.80,0004.37
2023-11-27 02:21:00,SystemResetWarning,0831.1,5.00,000.00,020.5,019.4,000.0,029.1,021.4,12.1,0000.0,0004.60,0007.85,0004.38
2023-11-27 02:22:00,SystemResetWarning,0831.1,4.99,000.00,020.4,019.4,000.0,029.1,021.4,12.1,0000.0,0004.61,0008.00,0004.38
2023-11-27 02:23:00,SystemResetWarning,0831.2,4.99,000.00,020.4,019.4,000.0,029.0,021.4,12.1,0000.0,0004.64,0008.56,0004.39
2023-11-27 02:24:00,SystemResetWarning,0831.2,4.99,000.00,020.4,019.4,000.0,029.0,021.4,12.1,0000.0,0004.68,0008.77,0004.41
2023-11-27 02:25:00,SystemResetWarning,0831.2,5.00,000.00,020.4,019.4,000.0,029.0,021.5,12.1,0000.0,0004.71,0009.11,0004.43
2023-11-27 02:26:00,SystemResetWarning,0831.2,5.01,000.00,020.4,019.4,000.0,029.0,021.5,12.1,0000.0,0004.75,0008.96,0004.45
2023-11-27 02:27:00,SystemResetWarning,0831.3,5.00,000.00,020.4,019.4,000.0,029.0,021.5,12.1,0000.0,0004.76,0009.03,0004.46
2023-11-27 02:28:00,SystemResetWarning,0831.3,4.99,000.00,020.4,019.4,000.0,028.9,021.5,12.1,0000.0,0004.78,0009.04,0004.48
2023-11-27 02:29:00,SystemResetWarning,0831.3,4.99,000.00,020.3,019.4,000.0,028.9,021.4,12.2,0000.0,0004.77,0009.00,0004.49
2023-11-27 02:30:00,SystemResetWarning,0831.3,4.99,000.00,020.3,019.4,000.0,028.9,021.4,12.2,0000.0,0004.79,0009.03,0004.51
2023-11-27 02:31:00,SystemResetWarning,0831.3,5.00,000.00,020.3,019.3,000.0,028.9,021.4,12.2,0000.0,0004.79,0009.05,0004.51
2023-11-27 02:32:00,SystemResetWarning,0831.3,5.01,000.00,020.3,019.3,000.0,028.9,021.3,12.3,0000.0,0004.79,0009.06,0004.51
2023-11-27 02:33:00,SystemResetWarning,0831.3,5.01,000.00,020.3,019.3,000.0,028.9,021.3,12.3,0000.0,0004.78,0008.93,0004.51
2023-11-27 02:34:00,SystemResetWarning,0831.3,5.01,000.00,020.3,019.3,000.0,028.8,021.3,12.2,0000.0,0004.76,0008.44,0004.51
2023-11-27 02:35:00,SystemResetWarning,0831.3,5.00,000.00,020.2,019.3,000.0,028.8,021.3,12.2,0000.0,0004.76,0008.31,0004.51
2023-11-27 02:36:00,SystemResetWarning,0831.3,5.00,000.00,020.2,019.3,000.0,028.8,021.2,12.2,0000.0,0004.74,0007.97,0004.48
2023-11-27 02:37:00,SystemResetWarning,0831.3,4.99,000.00,020.2,019.2,000.0,028.8,021.3,12.2,0000.0,0004.68,0007.64,0004.45
2023-11-27 02:38:00,SystemResetWarning,0831.3,4.99,000.00,020.2,019.2,000.0,028.8,021.2,12.2,0000.0,0004.65,0007.71,0004.43
2023-11-27 02:39:00,SystemResetWarning,0831.3,5.00,000.00,020.2,019.2,000.0,028.7,021.2,12.2,0000.0,0004.65,0007.73,0004.41
2023-11-27 02:40:00,SystemResetWarning,0831.3,5.01,000.00,020.1,019.2,000.0,028.7,021.2,12.2,0000.0,0004.67,0007.78,0004.41
2023-11-27 02:41:00,SystemResetWarning,0831.3,5.00,000.00,020.1,019.2,000.0,028.7,021.2,12.2,0000.0,0004.68,0007.80,0004.41
2023-11-27 02:42:00,SystemResetWarning,0831.3,5.01,000.00,020.1,019.1,000.0,028.7,021.2,12.3,0000.0,0004.67,0007.80,0004.41
2023-11-27 02:43:00,SystemResetWarning,0831.3,5.00,000.00,020.1,019.1,000.0,028.7,021.2,12.3,0000.0,0004.66,0008.05,0004.40
2023-11-27 02:44:00,SystemResetWarning,0831.3,5.00,000.00,020.1,019.1,000.0,028.7,021.2,12.3,0000.0,0004.64,0007.98,0004.38
2023-11-27 02:45:00,SystemResetWarning,0831.3,5.00,000.00,020.1,019.1,000.0,028.6,021.3,12.1,0000.0,0004.64,0008.00,0004.37
2023-11-27 02:46:00,SystemResetWarning,0831.3,5.00,000.00,020.1,019.1,000.0,028.6,021.2,12.1,0000.0,0004.62,0007.93,0004.37
2023-11-27 02:47:00,SystemResetWarning,0831.3,5.00,000.00,020.1,019.1,000.0,028.6,021.2,12.0,0000.0,0004.63,0007.95,0004.40
2023-11-27 02:48:00,SystemResetWarning,0831.3,4.99,000.00,020.1,019.1,000.0,028.6,021.2,12.0,0000.0,0004.70,0007.93,0004.45
2023-11-27 02:49:00,SystemResetWarning,0831.3,5.00,000.00,020.1,019.1,000.0,028.6,021.2,11.9,0000.0,0004.75,0007.69,0004.50
2023-11-27 02:50:00,SystemResetWarning,0831.3,4.99,000.00,020.1,019.1,000.0,028.6,021.2,11.9,0000.0,0004.80,0007.77,0004.53
2023-11-27 02:51:00,SystemResetWarning,0831.3,5.00,000.00,020.0,019.1,000.0,028.6,021.2,11.9,0000.0,0004.83,0007.83,0004.56
2023-11-27 02:52:00,SystemResetWarning,0831.4,5.01,000.00,020.0,019.1,000.0,028.6,021.1,11.9,0000.0,0004.84,0007.92,0004.58
2023-11-27 02:53:00,SystemResetWarning,0831.4,5.00,000.00,020.0,019.1,000.0,028.5,021.1,11.9,0000.0,0004.86,0007.89,0004.60
2023-11-27 02:54:00,SystemResetWarning,0831.4,5.00,000.00,020.0,019.1,000.0,028.5,021.1,11.8,0000.0,0004.87,0007.60,0004.62
2023-11-27 02:55:00,SystemResetWarning,0831.4,5.00,000.00,020.0,019.1,000.0,028.5,021.1,11.8,0000.0,0004.91,0007.68,0004.65
2023-11-27 02:56:00,SystemResetWarning,0831.4,5.00,000.00,020.0,019.0,000.0,028.5,021.1,11.8,0000.0,0004.93,0007.67,0004.68
2023-11-27 02:57:00,SystemResetWarning,0831.3,5.01,000.00,020.0,019.0,000.0,028.5,021.1,11.8,0000.0,0005.01,0007.80,0004.72
2023-11-27 02:58:00,SystemResetWarning,0831.3,4.99,000.00,019.9,019.0,000.0,028.5,021.0,11.8,0000.0,0005.05,0007.86,0004.74
2023-11-27 02:59:00,SystemResetWarning,0831.3,4.99,000.00,019.9,019.0,000.0,028.5,021.0,11.8,0000.0,0005.01,0007.74,0004.73
